Regional Weather Roundup
Issued by NWS Little Rock, AR

Home | Current Version | Previous Version | Text Only | Print | Product List | Glossary On
Versions: 1 2 3 4 5 6 7 8 9 10 11 12 13 14 15 16 17 18 19 20 21 22 23 24 25 26 27 28 29 30 31 32 33 34 35 36 37 38 39 40 41 42 43 44 45 46 47 48
000
ASUS44 KLZK 031105
RWRLZK

WEATHER ROUNDUP FOR ARKANSAS
NATIONAL WEATHER SERVICE LITTLE ROCK AR
600 AM CDT WED JUN 03 2015

NOTE: "FAIR" INDICATES FEW OR NO CLOUDS BELOW 12,000 FEET WITH NO
SIGNIFICANT WEATHER AND/OR OBSTRUCTIONS TO VISIBILITY.

ARZ001-003-010-029-031200-
NORTHWEST ARKANSAS

CITY           SKY/WX    TMP DP  RH WIND       PRES   REMARKS
FAYETTEVILLE   CLEAR     60  60 100 CALM      29.99S FOG
FORT SMITH     CLEAR     67  64  90 E6        29.97S
HARRISON       CLOUDY    61  61 100 SE7       30.01F FOG
BENTONVILLE    PTCLDY    64  61  88 SE8       29.99S
ROGERS         CLEAR     64  63  96 SE10      30.00S
SILOAM SPGS    CLEAR     64  57  77 SE6       29.99S
HIGHFILL       CLEAR     64  62  93 SE3       29.98S
$$

ARZ004-005-016-031200-
NORTH CENTRAL ARKANSAS

CITY           SKY/WX    TMP DP  RH WIND       PRES   REMARKS
BATESVILLE     CLOUDY    61  57  88 CALM      30.03R
FLIPPIN        CLOUDY    61  57  88 E3        30.01S
MTN HOME       CLOUDY    58  56  93 E5        30.02S
$$

ARZ040-041-031200-
WEST CENTRAL ARKANSAS

CITY           SKY/WX    TMP DP  RH WIND       PRES   REMARKS
MENA           CLOUDY    64  64 100 CALM      30.02R VSB 1/2
MOUNT IDA      CLEAR     62  60  93 CALM      29.99S FOG
$$

ARZ009-017-025-026-028-031200-
NORTHEAST ARKANSAS

CITY           SKY/WX    TMP DP  RH WIND       PRES   REMARKS
CORNING          N/A     55  55 100 CALM      30.04S FOG
JONESBORO      CLEAR     57  56  96 NE3       30.03R FOG
NEWPORT        MOCLDY    59  59 100 N3        30.04R FOG
WALNUT RIDGE   CLEAR     57  54  88 N3        30.03S
BLYTHEVILLE    CLEAR     57  57 100 NW3       30.03R FOG
$$

ARZ022-023-033-042-044-031200-
CENTRAL ARKANSAS

CITY           SKY/WX    TMP DP  RH WIND       PRES   REMARKS
LITTLE ROCK    CLOUDY    66  60  81 NE5       30.02R
N LITTLE ROCK    N/A     63  62  97 E6        30.02R
JACKSONVILLE   CLOUDY    64  62  91 MISG      30.01R
SEARCY         CLOUDY    63  60  90 CALM      30.04R
HOT SPRINGS    MOCLDY    65  61  87 E5        30.01R
RUSSELLVILLE   PTCLDY    63  60  90 CALM      30.01S
CLINTON        MOCLDY    59  59 100 CALM      30.04S FOG
$$

ARZ036-031200-
EAST ARKANSAS

CITY           SKY/WX    TMP DP  RH WIND       PRES   REMARKS
WEST MEMPHIS   PTCLDY    58  58 100 NW3       30.01R FOG
$$

ARZ050-053-066-070-073-031200-
SOUTHWEST ARKANSAS

CITY           SKY/WX    TMP DP  RH WIND       PRES   REMARKS
ARKADELPHIA    FAIR      65  65 100 NE3       30.01R
CAMDEN         CLEAR     61  59  94 CALM      30.00R FOG
TEXARKANA      CLEAR     65  64  97 E3        29.98R
EL DORADO      CLEAR     63  61  93 CALM      29.99R
DE QUEEN       CLEAR     65  63  93 NE5       29.97R
$$

ARZ056-057-069-031200-
SOUTHEAST ARKANSAS

CITY           SKY/WX    TMP DP  RH WIND       PRES   REMARKS
PINE BLUFF     MOCLDY    65  62  90 CALM      30.01R
STUTTGART      CLOUDY    64  59  82 E5        30.02R
MONTICELLO     CLOUDY    63  62  97 CALM      30.00R

$$





USA.gov is the U.S. government's official web portal to all federal, state and local government web resources and services.